Weather History for Hutchinson, MN

Change the Weather History Date:

Wednesday, March 20, 2013

  Actual Average Record
Temperature  
Mean Temperature 8 °F -  
Max Temperature 16 °F 41 °F 63 °F (1991)
Min Temperature 0 °F 25 °F -13 °F (1965)
Degree Days  
Heating Degree Days 57    
Moisture  
Dew Point -1 °F    
Average Humidity 68    
Maximum Humidity 81    
Minimum Humidity 49    
Precipitation  
Precipitation 0.00 in - - ()
Sea Level Pressure  
Sea Level Pressure 30.19 in    
Wind  
Wind Speed 15 mph (WNW)    
Max Wind Speed 25 mph    
Max Gust Speed 32 mph    
Visibility 10 miles    
Events      
Averages and records for this station are not official NWS values.
T = Trace of Precipitation, MM = Missing Value Source: NWS Daily Summary

Daily Weather History Graph

Daily Weather History Graph

Search for Another Location

Airport:

Trip Planner

Search our weather history database for the weather conditions in past years. The results will help you decide how hot, cold, wet, or windy it might be!

Date:

Astronomy

Mar. 20, 2013 Rise Set
Actual Time 7:20 AM CDT 7:30 PM CDT
Civil Twilight 6:50 AM CDT 7:59 PM CDT
Nautical Twilight 6:16 AM CDT 8:33 PM CDT
Astronomical Twilight 5:41 AM CDT 9:09 PM CDT
Moon 12:52 PM CDT (3/20) 3:14 AM CDT (3/20)
Length of Visible Light 13h 08m
Length of Day
12h 10m
First Quarter, 59% of the Moon is Illuminated
Mar 20
First Quarter
Mar 27
Full
Apr 2
Last Quarter
Apr 10
New
Apr 18
First Quarter

Hourly Weather History & Observations

Time (CDT) Temp. Windchill Dew Point Humidity Pressure Visibility Wind Dir Wind Speed Gust Speed Precip Events Conditions
12:13 AM 4.8 °F -12.5 °F -0.4 °F 79% 30.23 in 10.0 mi West 13.8 mph - N/A   Clear
12:34 AM 4.1 °F -14.1 °F -0.6 °F 81% 30.23 in 10.0 mi West 15.0 mph - N/A   Clear
12:52 AM 5.0 °F -12.3 °F -0.2 °F 79% 30.23 in 10.0 mi West 13.8 mph - N/A   Clear
1:14 AM 5.7 °F -12.0 °F -1.1 °F 73% 30.23 in 10.0 mi West 15.0 mph - N/A   Clear
1:34 AM 5.5 °F -11.6 °F -0.8 °F 75% 30.23 in 10.0 mi WNW 13.8 mph - N/A   Clear
1:54 AM 5.2 °F -11.4 °F -1.1 °F 75% 30.23 in 10.0 mi West 12.7 mph - N/A   Clear
2:14 AM 4.1 °F -14.7 °F -1.3 °F 78% 30.23 in 10.0 mi West 16.1 mph - N/A   Clear
2:34 AM 4.1 °F -12.7 °F -1.8 °F 76% 30.24 in 10.0 mi WNW 12.7 mph - N/A   Clear
2:54 AM 3.7 °F -12.4 °F -2.6 °F 75% 30.24 in 10.0 mi WNW 11.5 mph - N/A   Clear
3:14 AM 3.2 °F -13.1 °F -3.1 °F 75% 30.24 in 10.0 mi WNW 11.5 mph - N/A   Clear
3:34 AM 2.8 °F -14.3 °F -3.5 °F 75% 30.23 in 10.0 mi West 12.7 mph - N/A   Clear
3:54 AM 2.3 °F -15.7 °F -3.3 °F 77% 30.23 in 10.0 mi West 13.8 mph - N/A   Clear
4:12 AM 1.9 °F -16.2 °F -3.8 °F 77% 30.22 in 10.0 mi West 13.8 mph - N/A   Clear
4:34 AM 2.1 °F -17.3 °F -3.3 °F 78% 30.22 in 10.0 mi West 16.1 mph - N/A   Clear
4:54 AM 1.8 °F -17.8 °F -3.5 °F 79% 30.23 in 10.0 mi West 16.1 mph - N/A   Clear
5:13 AM 1.8 °F -15.7 °F -4.0 °F 77% 30.23 in 10.0 mi WNW 12.7 mph - N/A   Clear
5:34 AM 1.8 °F -17.8 °F -4.2 °F 76% 30.23 in 10.0 mi WNW 16.1 mph - N/A   Clear
5:54 AM 1.4 °F -18.8 °F -4.4 °F 77% 30.24 in 10.0 mi West 17.3 mph 21.9 mph N/A   Clear
6:13 AM 1.4 °F -17.6 °F -4.2 °F 77% 30.24 in 10.0 mi WNW 15.0 mph - N/A   Clear
6:18 AM 1.4 °F -17.6 °F -4.2 °F 77% 30.24 in 10.0 mi WNW 15.0 mph - N/A   Clear
6:45 AM 1.4 °F -17.6 °F -5.8 °F 72% 30.24 in 10.0 mi WNW 15.0 mph - N/A   Clear
7:05 AM 1.4 °F -18.2 °F -5.8 °F 72% 30.24 in 10.0 mi West 16.1 mph - N/A   Clear
7:25 AM -0.4 °F -20.5 °F -5.8 °F 78% 30.24 in 10.0 mi West 16.1 mph - N/A   Clear
7:45 AM -0.4 °F -20.5 °F -5.8 °F 78% 30.25 in 10.0 mi West 16.1 mph - N/A   Clear
8:05 AM -0.4 °F -19.9 °F -5.8 °F 78% 30.25 in 10.0 mi West 15.0 mph - N/A   Clear
8:45 AM 1.4 °F -16.9 °F -4.0 °F 78% 30.25 in 10.0 mi WNW 13.8 mph - N/A   Clear
8:57 AM 3.0 °F -14.8 °F -4.4 °F 71% 30.24 in 10.0 mi WNW 13.8 mph - N/A   Clear
9:14 AM 3.7 °F -12.4 °F -4.2 °F 70% 30.24 in 10.0 mi WNW 11.5 mph - N/A   Clear
9:33 AM 4.6 °F -12.8 °F -4.0 °F 67% 30.24 in 10.0 mi WNW 13.8 mph 19.6 mph N/A   Clear
9:54 AM 5.5 °F -12.3 °F -3.5 °F 66% 30.24 in 10.0 mi WNW 15.0 mph - N/A   Clear
10:14 AM 6.3 °F -10.7 °F -2.6 °F 67% 30.24 in 10.0 mi WNW 13.8 mph - N/A   Clear
10:33 AM 7.7 °F -8.9 °F -2.2 °F 64% 30.24 in 10.0 mi WNW 13.8 mph 19.6 mph N/A   Clear
10:54 AM 9.5 °F -7.2 °F -1.3 °F 62% 30.23 in 10.0 mi West 15.0 mph - N/A   Clear
11:14 AM 9.7 °F -7.0 °F -0.9 °F 62% 30.23 in 10.0 mi WNW 15.0 mph - N/A   Clear
11:34 AM 10.8 °F -5.6 °F -0.2 °F 61% 30.22 in 10.0 mi WNW 15.0 mph 20.7 mph N/A   Clear
11:54 AM 11.5 °F -6.7 °F 0.1 °F 60% 30.21 in 10.0 mi WNW 19.6 mph - N/A   Clear
12:12 PM 12.6 °F -4.4 °F 1.4 °F 61% 30.21 in 10.0 mi West 17.3 mph - N/A   Clear
12:34 PM 14.2 °F -2.7 °F 0.7 °F 55% 30.20 in 10.0 mi WNW 18.4 mph 26.5 mph N/A   Clear
12:53 PM 14.5 °F -3.2 °F -0.9 °F 50% 30.20 in 10.0 mi WNW 20.7 mph 32.2 mph N/A   Clear
1:09 PM 14.9 °F -3.1 °F -0.4 °F 51% 30.20 in 10.0 mi WNW 21.9 mph 28.8 mph N/A   Clear
1:25 PM 14.0 °F -5.5 °F -0.4 °F 53% 30.19 in 10.0 mi NW 25.3 mph 32.2 mph N/A   Clear
1:45 PM 15.8 °F -2.7 °F -0.4 °F 49% 30.19 in 10.0 mi NW 24.2 mph 31.1 mph N/A   Clear
2:00 PM 15.8 °F -2.3 °F 0.7 °F 51% 30.18 in 10.0 mi NW 23.0 mph 31.1 mph N/A   Clear
2:14 PM 15.8 °F -2.7 °F 0.1 °F 50% 30.17 in 10.0 mi WNW 24.2 mph 31.1 mph N/A   Clear
2:34 PM 15.8 °F -0.2 °F 3.6 °F 59% 30.17 in 10.0 mi WNW 17.3 mph 25.3 mph N/A   Clear
2:54 PM 15.6 °F -1.8 °F 4.3 °F 61% 30.16 in 10.0 mi WNW 20.7 mph 26.5 mph N/A   Clear
3:14 PM 15.8 °F -0.2 °F 3.6 °F 59% 30.16 in 10.0 mi WNW 17.3 mph 24.2 mph N/A   Clear
3:33 PM 15.8 °F -0.2 °F 4.1 °F 60% 30.16 in 10.0 mi WNW 17.3 mph 27.6 mph N/A   Clear
3:54 PM 16.2 °F -0.6 °F 3.4 °F 57% 30.15 in 10.0 mi WNW 19.6 mph 25.3 mph N/A   Clear
4:14 PM 16.2 °F 0.3 °F 2.8 °F 56% 30.15 in 10.0 mi WNW 17.3 mph 24.2 mph N/A   Clear
4:34 PM 16.2 °F -0.6 °F 3.7 °F 58% 30.14 in 10.0 mi WNW 19.6 mph 23.0 mph N/A   Clear
4:54 PM 15.8 °F -1.1 °F 3.7 °F 59% 30.15 in 10.0 mi WNW 19.6 mph 24.2 mph N/A   Clear
5:14 PM 15.3 °F -1.8 °F 3.2 °F 59% 30.15 in 10.0 mi WNW 19.6 mph 24.2 mph N/A   Clear
5:34 PM 14.7 °F -1.6 °F 3.0 °F 60% 30.14 in 10.0 mi WNW 17.3 mph 23.0 mph N/A   Clear
5:54 PM 14.7 °F -0.5 °F 3.6 °F 61% 30.14 in 10.0 mi West 15.0 mph 20.7 mph N/A   Clear
6:14 PM 14.5 °F -2.3 °F 2.5 °F 59% 30.14 in 10.0 mi WNW 18.4 mph 23.0 mph N/A   Clear
6:34 PM 14.0 °F -0.8 °F 2.1 °F 59% 30.14 in 10.0 mi WNW 13.8 mph - N/A   Clear
6:53 PM 13.6 °F 0.0 °F 2.1 °F 60% 30.14 in 10.0 mi WNW 11.5 mph - N/A   Clear
7:14 PM 12.7 °F -1.8 °F 1.9 °F 62% 30.14 in 10.0 mi WNW 12.7 mph - N/A   Clear
7:34 PM 12.0 °F -1.3 °F 1.4 °F 62% 30.14 in 10.0 mi WNW 10.4 mph - N/A   Clear
7:54 PM 10.8 °F -2.0 °F 1.4 °F 66% 30.15 in 10.0 mi WNW 9.2 mph - N/A   Clear
8:14 PM 10.6 °F -3.1 °F 1.2 °F 66% 30.15 in 10.0 mi WNW 10.4 mph - N/A   Clear
8:33 PM 9.5 °F -5.2 °F 1.2 °F 69% 30.15 in 10.0 mi WNW 11.5 mph - N/A   Clear
8:54 PM 9.0 °F -4.2 °F 0.5 °F 69% 30.15 in 10.0 mi WNW 9.2 mph - N/A   Clear
9:14 PM 8.1 °F -5.3 °F 0.5 °F 71% 30.15 in 10.0 mi WNW 9.2 mph - N/A   Clear
9:34 PM 7.7 °F -6.6 °F 0.3 °F 72% 30.15 in 10.0 mi WNW 10.4 mph - N/A   Clear
9:54 PM 7.5 °F -6.9 °F 0.3 °F 72% 30.14 in 10.0 mi WNW 10.4 mph - N/A   Clear
10:14 PM 6.8 °F -7.8 °F -0.4 °F 72% 30.14 in 10.0 mi WNW 10.4 mph - N/A   Clear
10:34 PM 6.6 °F -8.0 °F -0.4 °F 73% 30.14 in 10.0 mi WNW 10.4 mph - N/A   Clear
10:54 PM 5.9 °F -8.0 °F -0.9 °F 73% 30.14 in 10.0 mi WNW 9.2 mph - N/A   Clear
11:14 PM 5.2 °F -7.9 °F -1.3 °F 75% 30.14 in 10.0 mi WNW 8.1 mph - N/A   Clear
11:34 PM 5.2 °F -6.7 °F -1.1 °F 75% 30.14 in 10.0 mi WNW 6.9 mph - N/A   Clear
11:54 PM 3.4 °F -7.5 °F -2.7 °F 76% 30.13 in 10.0 mi NW 5.8 mph - N/A   Clear